Time,TemperatureF,DewpointF,PressureIn,WindDirection,WindDirectionDegrees,WindSpeedMPH,WindSpeedGustMPH,Humidity,HourlyPrecipIn,Conditions,Clouds,dailyrainin,SoftwareType,DateUTC
2013-04-04 00:00:00,59.7,37.7,29.96,WNW,287,4.6,4.6,44,0.00,CLR,,0.00,WeatherDisplay:10.37,2013-04-04 07:00:00,
2013-04-04 00:05:00,59.2,38.4,29.95,West,269,8.0,8.0,46,0.00,CLR,,0.00,WeatherDisplay:10.37,2013-04-04 07:05:00,
2013-04-04 00:10:00,59.0,38.2,29.95,West,267,8.0,8.0,46,0.00,CLR,,0.00,WeatherDisplay:10.37,2013-04-04 07:10:00,
2013-04-04 00:15:00,58.9,38.7,29.95,West,277,5.8,5.8,47,0.00,CLR,,0.00,WeatherDisplay:10.37,2013-04-04 07:15:00,
2013-04-04 00:20:00,59.0,38.8,29.95,West,277,6.9,6.9,47,0.00,CLR,,0.00,WeatherDisplay:10.37,2013-04-04 07:20:00,
2013-04-04 00:25:00,59.4,39.1,29.95,WNW,288,5.8,5.8,47,0.00,CLR,,0.00,WeatherDisplay:10.37,2013-04-04 07:25:00,
2013-04-04 00:30:00,60.0,39.1,29.95,WNW,295,6.0,6.0,46,0.00,CLR,,0.00,WeatherDisplay:10.37,2013-04-04 07:30:00,
2013-04-04 00:35:00,60.3,38.9,29.95,WNW,298,5.8,5.8,45,0.00,CLR,,0.00,WeatherDisplay:10.37,2013-04-04 07:35:00,
2013-04-04 00:40:00,60.3,38.9,29.95,WNW,292,6.9,6.9,45,0.00,CLR,,0.00,WeatherDisplay:10.37,2013-04-04 07:40:00,
2013-04-04 00:45:00,60.4,38.9,29.95,West,281,6.9,6.9,45,0.00,CLR,,0.00,WeatherDisplay:10.37,2013-04-04 07:45:00,
2013-04-04 00:50:00,60.5,39.0,29.95,West,261,4.6,4.6,45,0.00,CLR,,0.00,WeatherDisplay:10.37,2013-04-04 07:50:00,
2013-04-04 00:55:00,60.1,38.7,29.95,West,261,3.5,3.5,45,0.00,CLR,,0.00,WeatherDisplay:10.37,2013-04-04 07:55:00,
2013-04-04 01:00:00,59.5,38.7,29.95,West,261,3.5,3.5,46,0.00,CLR,,0.00,WeatherDisplay:10.37,2013-04-04 08:00:00,
2013-04-04 01:05:00,58.8,38.1,29.95,WSW,250,5.0,5.0,46,0.00,CLR,,0.00,WeatherDisplay:10.37,2013-04-04 08:05:00,
2013-04-04 01:10:00,58.1,38.5,29.95,WSW,250,5.0,5.0,48,0.00,CLR,,0.00,WeatherDisplay:10.37,2013-04-04 08:10:00,
2013-04-04 01:15:00,58.3,38.7,29.95,West,259,6.9,6.9,48,0.00,CLR,,0.00,WeatherDisplay:10.37,2013-04-04 08:15:00,
2013-04-04 01:20:00,58.8,39.1,29.95,West,264,4.6,4.6,48,0.00,CLR,,0.00,WeatherDisplay:10.37,2013-04-04 08:20:00,
2013-04-04 01:25:00,58.8,39.1,29.94,West,264,3.5,3.5,48,0.00,CLR,,0.00,WeatherDisplay:10.37,2013-04-04 08:25:00,
2013-04-04 01:30:00,58.9,39.2,29.95,West,264,3.5,3.5,48,0.00,CLR,,0.00,WeatherDisplay:10.37,2013-04-04 08:30:00,
2013-04-04 01:35:00,59.0,39.3,29.94,West,264,3.5,3.5,48,0.00,CLR,,0.00,WeatherDisplay:10.37,2013-04-04 08:35:00,
2013-04-04 01:40:00,59.0,39.3,29.94,West,264,3.5,3.5,48,0.00,CLR,,0.00,WeatherDisplay:10.37,2013-04-04 08:40:00,
2013-04-04 01:45:00,59.0,39.3,29.94,West,264,4.0,4.0,48,0.00,CLR,,0.00,WeatherDisplay:10.37,2013-04-04 08:45:00,
2013-04-04 01:50:00,58.7,39.6,29.94,West,264,5.8,5.8,49,0.00,CLR,,0.00,WeatherDisplay:10.37,2013-04-04 08:50:00,
2013-04-04 01:55:00,59.0,39.9,29.94,West,264,5.8,5.8,49,0.00,CLR,,0.00,WeatherDisplay:10.37,2013-04-04 08:55:00,
2013-04-04 02:00:00,59.1,39.9,29.94,West,264,5.8,5.8,49,0.00,CLR,,0.00,WeatherDisplay:10.37,2013-04-04 09:00:00,
2013-04-04 02:05:00,59.3,40.1,29.94,West,264,6.0,6.0,49,0.00,CLR,,0.00,WeatherDisplay:10.37,2013-04-04 09:05:00,
2013-04-04 02:10:00,59.3,40.1,29.94,West,278,6.9,6.9,49,0.00,CLR,,0.00,WeatherDisplay:10.37,2013-04-04 09:10:00,
2013-04-04 02:15:00,59.1,39.9,29.94,WNW,292,6.9,6.9,49,0.00,CLR,,0.00,WeatherDisplay:10.37,2013-04-04 09:15:00,
2013-04-04 02:20:00,59.0,39.9,29.93,West,281,9.2,9.2,49,0.00,CLR,,0.00,WeatherDisplay:10.37,2013-04-04 09:20:00,
2013-04-04 02:25:00,58.9,40.3,29.93,West,279,10.4,10.4,50,0.00,CLR,,0.00,WeatherDisplay:10.37,2013-04-04 09:25:00,
2013-04-04 02:30:00,58.8,40.2,29.93,WNW,289,9.2,9.2,50,0.00,CLR,,0.00,WeatherDisplay:10.37,2013-04-04 09:30:00,
2013-04-04 02:35:00,58.7,40.1,29.93,West,279,7.0,7.0,50,0.00,CLR,,0.00,WeatherDisplay:10.37,2013-04-04 09:35:00,
2013-04-04 02:40:00,58.6,40.0,29.93,WNW,288,9.2,9.2,50,0.00,CLR,,0.00,WeatherDisplay:10.37,2013-04-04 09:40:00,
2013-04-04 02:45:00,58.7,40.1,29.93,West,275,5.8,5.8,50,0.00,CLR,,0.00,WeatherDisplay:10.37,2013-04-04 09:45:00,
2013-04-04 02:50:00,58.8,40.2,29.93,West,275,4.6,4.6,50,0.00,CLR,,0.00,WeatherDisplay:10.37,2013-04-04 09:50:00,
2013-04-04 02:55:00,59.0,40.4,29.93,West,275,3.5,3.5,50,0.00,CLR,,0.00,WeatherDisplay:10.37,2013-04-04 09:55:00,
2013-04-04 03:00:00,59.0,39.9,29.93,West,275,3.5,3.5,49,0.00,CLR,,0.00,WeatherDisplay:10.37,2013-04-04 10:00:00,
2013-04-04 03:05:00,58.9,40.3,29.92,West,275,3.5,3.5,50,0.00,CLR,,0.00,WeatherDisplay:10.37,2013-04-04 10:05:00,
2013-04-04 03:10:00,58.4,39.8,29.92,West,275,1.1,1.1,50,0.00,CLR,,0.00,WeatherDisplay:10.37,2013-04-04 10:10:00,
2013-04-04 03:16:00,57.8,39.3,29.92,West,269,3.5,3.5,50,0.00,CLR,,0.00,WeatherDisplay:10.37,2013-04-04 10:16:00,
2013-04-04 03:21:00,57.7,39.7,29.92,West,269,3.5,3.5,51,0.00,CLR,,0.00,WeatherDisplay:10.37,2013-04-04 10:21:00,
2013-04-04 03:26:00,57.6,40.1,29.92,West,276,5.8,5.8,52,0.00,CLR,,0.00,WeatherDisplay:10.37,2013-04-04 10:26:00,
2013-04-04 03:31:00,57.4,39.4,29.92,WSW,256,4.6,4.6,51,0.00,CLR,,0.00,WeatherDisplay:10.37,2013-04-04 10:31:00,
2013-04-04 03:36:00,57.0,39.5,29.93,WSW,256,4.0,4.0,52,0.00,CLR,,0.00,WeatherDisplay:10.37,2013-04-04 10:36:00,
2013-04-04 03:41:00,56.8,39.4,29.93,WSW,256,4.6,4.6,52,0.00,CLR,,0.00,WeatherDisplay:10.37,2013-04-04 10:41:00,
2013-04-04 03:46:00,56.5,39.1,29.93,West,259,5.8,5.8,52,0.00,CLR,,0.00,WeatherDisplay:10.37,2013-04-04 10:46:00,
2013-04-04 03:51:00,56.5,39.1,29.93,West,261,10.4,10.4,52,0.00,CLR,,0.00,WeatherDisplay:10.37,2013-04-04 10:51:00,
2013-04-04 03:56:00,57.7,39.2,29.92,WSW,246,10.4,10.4,50,0.00,CLR,,0.00,WeatherDisplay:10.37,2013-04-04 10:56:00,
2013-04-04 04:01:00,58.9,39.2,29.93,WNW,283,11.5,11.5,48,0.00,CLR,,0.00,WeatherDisplay:10.37,2013-04-04 11:01:00,
2013-04-04 04:07:00,59.3,39.1,29.92,WSW,256,12.0,12.0,47,0.00,CLR,,0.00,WeatherDisplay:10.37,2013-04-04 11:07:00,
2013-04-04 04:12:00,59.7,38.9,29.92,West,267,11.5,11.5,46,0.00,CLR,,0.00,WeatherDisplay:10.37,2013-04-04 11:12:00,
2013-04-04 04:17:00,59.5,38.7,29.92,West,261,5.8,5.8,46,0.00,CLR,,0.00,WeatherDisplay:10.37,2013-04-04 11:17:00,
2013-04-04 04:22:00,59.0,38.8,29.92,West,261,3.5,3.5,47,0.00,CLR,,0.00,WeatherDisplay:10.37,2013-04-04 11:22:00,
2013-04-04 04:27:00,58.6,39.0,29.92,West,261,3.5,3.5,48,0.00,CLR,,0.00,WeatherDisplay:10.37,2013-04-04 11:27:00,
2013-04-04 04:32:00,58.0,38.9,29.92,West,261,3.5,3.5,49,0.00,CLR,,0.00,WeatherDisplay:10.37,2013-04-04 11:32:00,
2013-04-04 04:38:00,57.5,38.5,29.92,SW,217,5.0,5.0,49,0.00,CLR,,0.00,WeatherDisplay:10.37,2013-04-04 11:38:00,
2013-04-04 04:43:00,57.6,38.6,29.92,WSW,240,7.0,7.0,49,0.00,CLR,,0.00,WeatherDisplay:10.37,2013-04-04 11:43:00,
2013-04-04 04:48:00,57.5,39.0,29.92,West,271,5.8,5.8,50,0.00,CLR,,0.00,WeatherDisplay:10.37,2013-04-04 11:48:00,
2013-04-04 04:53:00,57.5,39.0,29.92,WSW,241,5.0,5.0,50,0.00,CLR,,0.00,WeatherDisplay:10.37,2013-04-04 11:53:00,
2013-04-04 04:58:00,57.5,38.5,29.92,SW,230,3.5,3.5,49,0.00,CLR,,0.00,WeatherDisplay:10.37,2013-04-04 11:58:00,
2013-04-04 05:03:00,57.2,38.7,29.92,SW,230,2.3,2.3,50,0.00,CLR,,0.00,WeatherDisplay:10.37,2013-04-04 12:03:00,
2013-04-04 05:08:00,56.9,38.4,29.92,SW,230,2.3,2.3,50,0.00,CLR,,0.00,WeatherDisplay:10.37,2013-04-04 12:08:00,
2013-04-04 05:13:00,56.6,38.2,29.92,SW,230,3.5,3.5,50,0.00,CLR,,0.00,WeatherDisplay:10.37,2013-04-04 12:13:00,
2013-04-04 05:18:00,56.2,37.8,29.92,SW,230,3.5,3.5,50,0.00,CLR,,0.00,WeatherDisplay:10.37,2013-04-04 12:18:00,
2013-04-04 05:23:00,55.8,37.9,29.93,SW,230,4.6,4.6,51,0.00,CLR,,0.00,WeatherDisplay:10.37,2013-04-04 12:23:00,
2013-04-04 05:28:00,55.7,37.8,29.92,SW,230,3.5,3.5,51,0.00,CLR,,0.00,WeatherDisplay:10.37,2013-04-04 12:28:00,
2013-04-04 05:33:00,55.7,37.8,29.92,SW,230,5.0,5.0,51,0.00,CLR,,0.00,WeatherDisplay:10.37,2013-04-04 12:33:00,
2013-04-04 05:38:00,55.1,37.8,29.93,WSW,249,6.9,6.9,52,0.00,CLR,,0.00,WeatherDisplay:10.37,2013-04-04 12:38:00,
2013-04-04 05:43:00,54.9,38.1,29.92,West,265,6.9,6.9,53,0.00,CLR,,0.00,WeatherDisplay:10.37,2013-04-04 12:43:00,
2013-04-04 05:48:00,55.2,38.4,29.92,West,267,5.0,5.0,53,0.00,CLR,,0.00,WeatherDisplay:10.37,2013-04-04 12:48:00,
2013-04-04 05:53:00,55.3,38.0,29.93,West,267,3.5,3.5,52,0.00,CLR,,0.00,WeatherDisplay:10.37,2013-04-04 12:53:00,
2013-04-04 05:58:00,55.0,37.7,29.92,West,267,0.0,0.0,52,0.00,CLR,,0.00,WeatherDisplay:10.37,2013-04-04 12:58:00,
2013-04-04 06:03:00,54.7,37.9,29.94,West,267,1.1,1.1,53,0.00,CLR,,0.00,WeatherDisplay:10.37,2013-04-04 13:03:00,
2013-04-04 06:08:00,54.7,37.9,29.93,West,268,3.0,3.0,53,0.00,CLR,,0.00,WeatherDisplay:10.37,2013-04-04 13:08:00,
2013-04-04 06:13:00,55.0,38.2,29.94,West,268,3.5,3.5,53,0.00,CLR,,0.00,WeatherDisplay:10.37,2013-04-04 13:13:00,
2013-04-04 06:18:00,55.1,37.8,29.93,West,268,2.3,2.3,52,0.00,CLR,,0.00,WeatherDisplay:10.37,2013-04-04 13:18:00,
2013-04-04 06:23:00,54.9,38.1,29.94,West,268,3.5,3.5,53,0.00,CLR,,0.00,WeatherDisplay:10.37,2013-04-04 13:23:00,
2013-04-04 06:28:00,54.8,38.0,29.94,West,268,2.3,2.3,53,0.00,CLR,,0.00,WeatherDisplay:10.37,2013-04-04 13:28:00,
2013-04-04 06:33:00,54.7,37.9,29.94,West,268,3.5,3.5,53,0.00,CLR,,0.00,WeatherDisplay:10.37,2013-04-04 13:33:00,
2013-04-04 06:38:00,54.9,38.1,29.94,West,268,0.0,0.0,53,0.00,CLR,,0.00,WeatherDisplay:10.37,2013-04-04 13:38:00,
2013-04-04 06:43:00,55.2,38.4,29.94,West,268,2.3,2.3,53,0.00,CLR,,0.00,WeatherDisplay:10.37,2013-04-04 13:43:00,
2013-04-04 06:48:00,55.5,38.1,29.95,West,268,3.5,3.5,52,0.00,CLR,,0.00,WeatherDisplay:10.37,2013-04-04 13:48:00,
2013-04-04 06:53:00,55.4,38.1,29.95,West,268,5.8,5.8,52,0.00,CLR,,0.00,WeatherDisplay:10.37,2013-04-04 13:53:00,
2013-04-04 06:58:00,55.1,37.8,29.95,West,268,6.0,6.0,52,0.00,CLR,,0.00,WeatherDisplay:10.37,2013-04-04 13:58:00,
2013-04-04 07:03:00,54.8,38.0,29.97,West,263,4.6,4.6,53,0.00,CLR,,0.00,WeatherDisplay:10.37,2013-04-04 14:03:00,
2013-04-04 07:08:00,54.8,38.5,29.96,West,263,3.5,3.5,54,0.00,CLR,,0.00,WeatherDisplay:10.37,2013-04-04 14:08:00,
2013-04-04 07:13:00,55.0,38.6,29.97,West,263,2.3,2.3,54,0.00,CLR,,0.00,WeatherDisplay:10.37,2013-04-04 14:13:00,
2013-04-04 07:19:00,55.3,38.4,29.97,West,263,2.3,2.3,53,0.00,CLR,,0.00,WeatherDisplay:10.37,2013-04-04 14:19:00,
2013-04-04 07:24:00,55.6,38.7,29.97,West,263,4.0,4.0,53,0.00,CLR,,0.00,WeatherDisplay:10.37,2013-04-04 14:24:00,
2013-04-04 07:29:00,56.2,39.3,29.98,West,263,4.0,4.0,53,0.00,CLR,,0.00,WeatherDisplay:10.37,2013-04-04 14:29:00,
2013-04-04 07:34:00,56.8,39.4,29.98,West,260,9.2,9.2,52,0.00,CLR,,0.00,WeatherDisplay:10.37,2013-04-04 14:34:00,
2013-04-04 07:39:00,57.3,39.8,29.98,West,261,4.6,4.6,52,0.00,CLR,,0.00,WeatherDisplay:10.37,2013-04-04 14:39:00,
2013-04-04 07:44:00,57.8,39.8,29.98,West,271,6.0,6.0,51,0.00,CLR,,0.00,WeatherDisplay:10.37,2013-04-04 14:44:00,
2013-04-04 07:49:00,58.4,40.3,29.98,West,280,8.1,8.1,51,0.00,CLR,,0.00,WeatherDisplay:10.37,2013-04-04 14:49:00,
2013-04-04 07:54:00,58.9,40.3,29.98,West,271,9.2,9.2,50,0.00,CLR,,0.00,WeatherDisplay:10.37,2013-04-04 14:54:00,
2013-04-04 07:59:00,59.0,39.9,29.98,West,261,9.2,9.2,49,0.00,CLR,,0.00,WeatherDisplay:10.37,2013-04-04 14:59:00,
2013-04-04 08:04:00,59.0,39.9,29.99,West,269,6.9,6.9,49,0.00,CLR,,0.00,WeatherDisplay:10.37,2013-04-04 15:04:00,
2013-04-04 08:10:00,59.4,39.7,29.99,West,269,6.9,6.9,48,0.00,CLR,,0.00,WeatherDisplay:10.37,2013-04-04 15:10:00,
2013-04-04 08:15:00,59.7,40.0,29.98,WSW,241,5.0,5.0,48,0.00,CLR,,0.00,WeatherDisplay:10.37,2013-04-04 15:15:00,
2013-04-04 08:20:00,60.5,38.5,29.98,SSW,212,6.0,6.0,44,0.00,CLR,,0.00,WeatherDisplay:10.37,2013-04-04 15:20:00,
2013-04-04 08:25:00,61.4,38.1,29.98,SW,220,9.2,9.2,42,0.00,CLR,,0.00,WeatherDisplay:10.37,2013-04-04 15:25:00,
2013-04-04 08:30:00,61.8,37.8,29.97,SSW,211,3.5,3.5,41,0.00,CLR,,0.00,WeatherDisplay:10.37,2013-04-04 15:30:00,
2013-04-04 08:35:00,62.2,37.6,29.97,SSW,211,0.0,0.0,40,0.00,CLR,,0.00,WeatherDisplay:10.37,2013-04-04 15:35:00,
2013-04-04 08:40:00,62.8,38.1,29.97,SSW,211,1.1,1.1,40,0.00,CLR,,0.00,WeatherDisplay:10.37,2013-04-04 15:40:00,
2013-04-04 08:45:00,63.2,38.5,29.97,SSW,211,0.0,0.0,40,0.00,CLR,,0.00,WeatherDisplay:10.37,2013-04-04 15:45:00,
2013-04-04 08:50:00,63.6,38.2,29.97,SSW,211,0.0,0.0,39,0.00,CLR,,0.00,WeatherDisplay:10.37,2013-04-04 15:50:00,
2013-04-04 08:55:00,64.1,37.3,29.97,SSW,211,0.0,0.0,37,0.00,CLR,,0.00,WeatherDisplay:10.37,2013-04-04 15:55:00,
2013-04-04 09:00:00,64.8,37.9,29.98,West,271,4.0,4.0,37,0.00,CLR,,0.00,WeatherDisplay:10.37,2013-04-04 16:00:00,
2013-04-04 09:05:00,65.3,38.3,29.98,West,271,3.5,3.5,37,0.00,CLR,,0.00,WeatherDisplay:10.37,2013-04-04 16:05:00,
2013-04-04 09:10:00,66.1,36.9,29.98,SW,219,11.5,11.5,34,0.00,CLR,,0.00,WeatherDisplay:10.37,2013-04-04 16:10:00,
2013-04-04 09:15:00,67.8,38.4,29.98,West,259,13.0,13.0,34,0.00,CLR,,0.00,WeatherDisplay:10.37,2013-04-04 16:15:00,
2013-04-04 09:20:00,68.6,40.6,29.97,WSW,254,13.8,13.8,36,0.00,CLR,,0.00,WeatherDisplay:10.37,2013-04-04 16:20:00,
2013-04-04 09:25:00,69.2,43.2,29.97,West,268,12.7,12.7,39,0.00,CLR,,0.00,WeatherDisplay:10.37,2013-04-04 16:25:00,
2013-04-04 09:30:00,69.2,45.1,29.97,West,267,17.3,17.3,42,0.00,CLR,,0.00,WeatherDisplay:10.37,2013-04-04 16:30:00,
2013-04-04 09:35:00,69.1,45.0,29.97,SW,230,13.8,13.8,42,0.00,CLR,,0.00,WeatherDisplay:10.37,2013-04-04 16:35:00,
2013-04-04 09:41:00,69.7,44.9,29.97,WSW,250,17.3,17.3,41,0.00,CLR,,0.00,WeatherDisplay:10.37,2013-04-04 16:41:00,
2013-04-04 09:46:00,70.2,44.7,29.96,West,259,19.6,19.6,40,0.00,CLR,,0.00,WeatherDisplay:10.37,2013-04-04 16:46:00,
2013-04-04 09:52:00,70.8,44.6,29.95,West,273,9.2,9.2,39,0.00,CLR,,0.00,WeatherDisplay:10.37,2013-04-04 16:52:00,
2013-04-04 09:57:00,71.2,45.0,29.96,SSW,205,13.8,13.8,39,0.00,CLR,,0.00,WeatherDisplay:10.37,2013-04-04 16:57:00,
2013-04-04 10:02:00,72.0,44.3,29.96,West,277,15.0,15.0,37,0.00,CLR,,0.00,WeatherDisplay:10.37,2013-04-04 17:02:00,
2013-04-04 10:07:00,72.0,42.1,29.96,West,266,15.0,15.0,34,0.00,CLR,,0.00,WeatherDisplay:10.37,2013-04-04 17:07:00,
2013-04-04 10:12:00,72.4,40.9,29.96,WSW,242,16.1,16.1,32,0.00,CLR,,0.00,WeatherDisplay:10.37,2013-04-04 17:12:00,
2013-04-04 10:17:00,72.8,41.2,29.96,WSW,256,18.0,18.0,32,0.00,CLR,,0.00,WeatherDisplay:10.37,2013-04-04 17:17:00,
2013-04-04 10:22:00,72.5,40.1,29.96,WSW,247,15.0,15.0,31,0.00,CLR,,0.00,WeatherDisplay:10.37,2013-04-04 17:22:00,
2013-04-04 10:28:00,72.8,41.2,29.96,WSW,257,19.6,19.6,32,0.00,CLR,,0.00,WeatherDisplay:10.37,2013-04-04 17:28:00,
2013-04-04 10:33:00,72.3,41.6,29.96,West,268,18.4,18.4,33,0.00,CLR,,0.00,WeatherDisplay:10.37,2013-04-04 17:33:00,
2013-04-04 10:38:00,72.8,41.2,29.96,SW,235,13.0,13.0,32,0.00,CLR,,0.00,WeatherDisplay:10.37,2013-04-04 17:38:00,
2013-04-04 10:43:00,73.2,39.9,29.96,West,260,13.8,13.8,30,0.00,CLR,,0.00,WeatherDisplay:10.37,2013-04-04 17:43:00,
2013-04-04 10:48:00,73.5,38.4,29.96,West,260,13.8,13.8,28,0.00,CLR,,0.00,WeatherDisplay:10.37,2013-04-04 17:48:00,
2013-04-04 10:53:00,73.7,37.6,29.96,WNW,295,11.5,11.5,27,0.00,CLR,,0.00,WeatherDisplay:10.37,2013-04-04 17:53:00,
2013-04-04 10:58:00,74.1,38.0,29.96,WNW,282,17.3,17.3,27,0.00,CLR,,0.00,WeatherDisplay:10.37,2013-04-04 17:58:00,
2013-04-04 11:03:00,74.2,39.9,29.96,WSW,257,19.6,19.6,29,0.00,CLR,,0.00,WeatherDisplay:10.37,2013-04-04 18:03:00,
2013-04-04 11:08:00,74.0,39.7,29.96,West,267,17.0,17.0,29,0.00,CLR,,0.00,WeatherDisplay:10.37,2013-04-04 18:08:00,
2013-04-04 11:13:00,73.8,39.5,29.96,WSW,256,13.8,13.8,29,0.00,CLR,,0.00,WeatherDisplay:10.37,2013-04-04 18:13:00,
2013-04-04 11:18:00,72.6,42.6,29.97,NW,311,14.0,14.0,34,0.00,CLR,,0.00,WeatherDisplay:10.37,2013-04-04 18:18:00,
2013-04-04 11:23:00,72.6,39.4,29.97,West,273,12.7,12.7,30,0.00,CLR,,0.00,WeatherDisplay:10.37,2013-04-04 18:23:00,
2013-04-04 11:28:00,72.6,40.2,29.97,West,265,19.0,19.0,31,0.00,CLR,,0.00,WeatherDisplay:10.37,2013-04-04 18:28:00,
2013-04-04 11:33:00,73.1,40.7,29.97,WSW,251,19.6,19.6,31,0.00,CLR,,0.00,WeatherDisplay:10.37,2013-04-04 18:33:00,
2013-04-04 11:38:00,73.3,41.6,29.97,SSW,197,19.6,19.6,32,0.00,CLR,,0.00,WeatherDisplay:10.37,2013-04-04 18:38:00,
2013-04-04 11:43:00,73.8,42.1,29.96,West,273,19.6,19.6,32,0.00,CLR,,0.00,WeatherDisplay:10.37,2013-04-04 18:43:00,
2013-04-04 11:48:00,73.7,44.3,29.96,WSW,254,24.2,24.2,35,0.00,CLR,,0.00,WeatherDisplay:10.37,2013-04-04 18:48:00,
2013-04-04 11:53:00,72.6,44.1,29.97,WSW,238,20.7,20.7,36,0.00,CLR,,0.00,WeatherDisplay:10.37,2013-04-04 18:53:00,
2013-04-04 11:58:00,72.5,44.0,29.96,SW,235,20.7,20.7,36,0.00,CLR,,0.00,WeatherDisplay:10.37,2013-04-04 18:58:00,
2013-04-04 12:03:00,72.5,44.7,29.96,SW,222,19.6,19.6,37,0.00,CLR,,0.00,WeatherDisplay:10.37,2013-04-04 19:03:00,
2013-04-04 12:08:00,73.2,45.4,29.96,SSW,212,23.0,23.0,37,0.00,CLR,,0.00,WeatherDisplay:10.37,2013-04-04 19:08:00,
2013-04-04 12:13:00,72.0,45.0,29.96,SW,227,26.5,26.5,38,0.00,CLR,,0.00,WeatherDisplay:10.37,2013-04-04 19:13:00,
2013-04-04 12:18:00,71.9,45.6,29.96,WSW,245,23.0,23.0,39,0.00,CLR,,0.00,WeatherDisplay:10.37,2013-04-04 19:18:00,
2013-04-04 12:23:00,71.7,46.1,29.96,WSW,240,24.0,24.0,40,0.00,CLR,,0.00,WeatherDisplay:10.37,2013-04-04 19:23:00,
2013-04-04 12:28:00,71.6,46.0,29.96,WSW,254,25.3,25.3,40,0.00,CLR,,0.00,WeatherDisplay:10.37,2013-04-04 19:28:00,
2013-04-04 12:33:00,71.4,45.8,29.96,SW,233,20.7,20.7,40,0.00,CLR,,0.00,WeatherDisplay:10.37,2013-04-04 19:33:00,
2013-04-04 12:38:00,71.8,45.5,29.95,WSW,253,20.7,20.7,39,0.00,CLR,,0.00,WeatherDisplay:10.37,2013-04-04 19:38:00,
2013-04-04 12:43:00,71.8,46.2,29.95,West,263,26.5,26.5,40,0.00,CLR,,0.00,WeatherDisplay:10.37,2013-04-04 19:43:00,
2013-04-04 12:48:00,72.9,46.5,29.95,SW,236,23.0,23.0,39,0.00,CLR,,0.00,WeatherDisplay:10.37,2013-04-04 19:48:00,
2013-04-04 12:53:00,73.8,46.6,29.94,West,260,21.9,21.9,38,0.00,CLR,,0.00,WeatherDisplay:10.37,2013-04-04 19:53:00,
2013-04-04 12:58:00,74.0,46.1,29.94,West,265,25.3,25.3,37,0.00,CLR,,0.00,WeatherDisplay:10.37,2013-04-04 19:58:00,
2013-04-04 13:03:00,74.5,46.5,29.94,West,268,26.5,26.5,37,0.00,CLR,,0.00,WeatherDisplay:10.37,2013-04-04 20:03:00,
2013-04-04 13:08:00,74.5,46.5,29.93,West,276,15.0,15.0,37,0.00,CLR,,0.00,WeatherDisplay:10.37,2013-04-04 20:08:00,
2013-04-04 13:13:00,74.5,46.5,29.94,WSW,249,19.6,19.6,37,0.00,CLR,,0.00,WeatherDisplay:10.37,2013-04-04 20:13:00,
2013-04-04 13:18:00,74.4,45.7,29.94,WSW,256,20.7,20.7,36,0.00,CLR,,0.00,WeatherDisplay:10.37,2013-04-04 20:18:00,
2013-04-04 13:23:00,74.5,45.8,29.94,WSW,256,23.0,23.0,36,0.00,CLR,,0.00,WeatherDisplay:10.37,2013-04-04 20:23:00,
2013-04-04 13:32:00,75.1,46.3,29.93,West,281,15.0,15.0,36,0.00,CLR,,0.00,WeatherDisplay:10.37,2013-04-04 20:32:00,
2013-04-04 13:37:00,74.5,45.8,29.93,West,272,21.9,21.9,36,0.00,CLR,,0.00,WeatherDisplay:10.37,2013-04-04 20:37:00,
2013-04-04 13:42:00,74.0,45.3,29.93,West,267,18.0,18.0,36,0.00,CLR,,0.00,WeatherDisplay:10.37,2013-04-04 20:42:00,
2013-04-04 13:47:00,73.9,45.3,29.93,WNW,291,26.5,26.5,36,0.00,CLR,,0.00,WeatherDisplay:10.37,2013-04-04 20:47:00,
2013-04-04 13:52:00,74.4,45.0,29.93,West,275,15.0,15.0,35,0.00,CLR,,0.00,WeatherDisplay:10.37,2013-04-04 20:52:00,
2013-04-04 13:57:00,74.8,44.5,29.92,West,263,11.5,11.5,34,0.00,CLR,,0.00,WeatherDisplay:10.37,2013-04-04 20:57:00,
2013-04-04 14:02:00,76.0,44.8,29.92,SSW,211,18.0,18.0,33,0.00,CLR,,0.00,WeatherDisplay:10.37,2013-04-04 21:02:00,
2013-04-04 14:07:00,76.1,44.1,29.92,WSW,254,23.0,23.0,32,0.00,CLR,,0.00,WeatherDisplay:10.37,2013-04-04 21:07:00,
2013-04-04 14:12:00,76.3,45.1,29.92,WSW,257,19.6,19.6,33,0.00,CLR,,0.00,WeatherDisplay:10.37,2013-04-04 21:12:00,
2013-04-04 14:18:00,75.3,44.2,29.92,WSW,237,17.3,17.3,33,0.00,CLR,,0.00,WeatherDisplay:10.37,2013-04-04 21:18:00,
2013-04-04 14:23:00,76.0,44.8,29.92,West,259,19.6,19.6,33,0.00,CLR,,0.00,WeatherDisplay:10.37,2013-04-04 21:23:00,
2013-04-04 14:28:00,76.4,44.4,29.91,WSW,249,20.7,20.7,32,0.00,CLR,,0.00,WeatherDisplay:10.37,2013-04-04 21:28:00,
2013-04-04 14:33:00,75.7,45.3,29.91,WSW,244,21.9,21.9,34,0.00,CLR,,0.00,WeatherDisplay:10.37,2013-04-04 21:33:00,
2013-04-04 14:38:00,75.7,45.3,29.91,SSW,208,19.6,19.6,34,0.00,CLR,,0.00,WeatherDisplay:10.37,2013-04-04 21:38:00,
2013-04-04 14:43:00,75.7,45.3,29.91,WSW,238,18.4,18.4,34,0.00,CLR,,0.00,WeatherDisplay:10.37,2013-04-04 21:43:00,
2013-04-04 14:48:00,76.0,45.6,29.91,WSW,244,19.0,19.0,34,0.00,CLR,,0.00,WeatherDisplay:10.37,2013-04-04 21:48:00,
2013-04-04 14:53:00,75.9,45.5,29.91,SW,230,19.6,19.6,34,0.00,CLR,,0.00,WeatherDisplay:10.37,2013-04-04 21:53:00,
2013-04-04 14:58:00,75.7,45.3,29.90,WSW,240,16.1,16.1,34,0.00,CLR,,0.00,WeatherDisplay:10.37,2013-04-04 21:58:00,
2013-04-04 15:04:00,75.8,46.2,29.90,SW,217,12.7,12.7,35,0.00,CLR,,0.00,WeatherDisplay:10.37,2013-04-04 22:04:00,
2013-04-04 15:09:00,75.9,45.5,29.90,West,263,12.7,12.7,34,0.00,CLR,,0.00,WeatherDisplay:10.37,2013-04-04 22:09:00,
2013-04-04 15:14:00,75.7,45.3,29.89,SW,218,16.1,16.1,34,0.00,CLR,,0.00,WeatherDisplay:10.37,2013-04-04 22:14:00,
2013-04-04 15:19:00,75.8,45.4,29.89,WSW,247,16.1,16.1,34,0.00,CLR,,0.00,WeatherDisplay:10.37,2013-04-04 22:19:00,
2013-04-04 15:24:00,76.1,45.7,29.89,SSW,210,21.9,21.9,34,0.00,CLR,,0.00,WeatherDisplay:10.37,2013-04-04 22:24:00,
2013-04-04 15:29:00,76.3,45.9,29.89,West,272,18.0,18.0,34,0.00,CLR,,0.00,WeatherDisplay:10.37,2013-04-04 22:29:00,
2013-04-04 15:34:00,75.0,45.5,29.89,WSW,240,20.7,20.7,35,0.00,CLR,,0.00,WeatherDisplay:10.37,2013-04-04 22:34:00,
2013-04-04 15:39:00,75.6,46.0,29.89,West,261,16.1,16.1,35,0.00,CLR,,0.00,WeatherDisplay:10.37,2013-04-04 22:39:00,
2013-04-04 15:45:00,75.8,46.2,29.89,WSW,239,17.3,17.3,35,0.00,CLR,,0.00,WeatherDisplay:10.37,2013-04-04 22:45:00,
2013-04-04 15:50:00,75.7,45.3,29.88,SW,221,19.6,19.6,34,0.00,CLR,,0.00,WeatherDisplay:10.37,2013-04-04 22:50:00,
2013-04-04 15:55:00,75.3,45.7,29.88,SW,219,13.8,13.8,35,0.00,CLR,,0.00,WeatherDisplay:10.37,2013-04-04 22:55:00,
2013-04-04 16:00:00,75.8,46.2,29.88,West,273,17.3,17.3,35,0.00,CLR,,0.00,WeatherDisplay:10.37,2013-04-04 23:00:00,
2013-04-04 16:05:00,75.4,45.8,29.89,WSW,250,15.0,15.0,35,0.00,CLR,,0.00,WeatherDisplay:10.37,2013-04-04 23:05:00,
2013-04-04 16:10:00,75.0,45.5,29.88,SW,220,12.7,12.7,35,0.00,CLR,,0.00,WeatherDisplay:10.37,2013-04-04 23:10:00,
2013-04-04 16:15:00,75.5,45.9,29.88,West,263,18.4,18.4,35,0.00,CLR,,0.00,WeatherDisplay:10.37,2013-04-04 23:15:00,
2013-04-04 16:20:00,75.4,45.8,29.88,WSW,244,17.3,17.3,35,0.00,CLR,,0.00,WeatherDisplay:10.37,2013-04-04 23:20:00,
2013-04-04 16:25:00,74.6,45.1,29.88,WSW,247,12.7,12.7,35,0.00,CLR,,0.00,WeatherDisplay:10.37,2013-04-04 23:25:00,
2013-04-04 16:30:00,75.2,46.4,29.88,SSW,213,12.7,12.7,36,0.00,CLR,,0.00,WeatherDisplay:10.37,2013-04-04 23:30:00,
2013-04-04 16:35:00,75.4,46.6,29.88,South,186,19.6,19.6,36,0.00,CLR,,0.00,WeatherDisplay:10.37,2013-04-04 23:35:00,
2013-04-04 16:40:00,75.4,46.6,29.88,SW,234,19.6,19.6,36,0.00,CLR,,0.00,WeatherDisplay:10.37,2013-04-04 23:40:00,
2013-04-04 16:45:00,75.3,45.7,29.88,WSW,243,17.3,17.3,35,0.00,CLR,,0.00,WeatherDisplay:10.37,2013-04-04 23:45:00,
2013-04-04 16:50:00,75.4,45.8,29.88,WSW,246,16.1,16.1,35,0.00,CLR,,0.00,WeatherDisplay:10.37,2013-04-04 23:50:00,
2013-04-04 16:55:00,74.5,45.8,29.88,SW,219,18.4,18.4,36,0.00,CLR,,0.00,WeatherDisplay:10.37,2013-04-04 23:55:00,
2013-04-04 17:00:00,74.4,46.4,29.89,SSE,168,7.0,7.0,37,0.00,CLR,,0.00,WeatherDisplay:10.37,2013-04-05 00:00:00,
2013-04-04 17:05:00,74.7,46.0,29.88,WSW,242,20.7,20.7,36,0.00,CLR,,0.00,WeatherDisplay:10.37,2013-04-05 00:05:00,
2013-04-04 17:10:00,74.8,46.1,29.88,WSW,245,18.4,18.4,36,0.00,CLR,,0.00,WeatherDisplay:10.37,2013-04-05 00:10:00,
2013-04-04 17:15:00,74.3,45.6,29.89,West,261,13.8,13.8,36,0.00,CLR,,0.00,WeatherDisplay:10.37,2013-04-05 00:15:00,
2013-04-04 17:20:00,73.7,46.5,29.89,WSW,239,11.5,11.5,38,0.00,CLR,,0.00,WeatherDisplay:10.37,2013-04-05 00:20:00,
2013-04-04 17:25:00,73.9,46.7,29.89,SSW,208,15.0,15.0,38,0.00,CLR,,0.00,WeatherDisplay:10.37,2013-04-05 00:25:00,
2013-04-04 17:30:00,73.1,46.0,29.89,WSW,238,16.1,16.1,38,0.00,CLR,,0.00,WeatherDisplay:10.37,2013-04-05 00:30:00,
2013-04-04 17:35:00,72.7,45.6,29.89,WSW,257,17.3,17.3,38,0.00,CLR,,0.00,WeatherDisplay:10.37,2013-04-05 00:35:00,
2013-04-04 17:40:00,72.7,45.6,29.89,WSW,241,13.8,13.8,38,0.00,CLR,,0.00,WeatherDisplay:10.37,2013-04-05 00:40:00,
2013-04-04 17:46:00,72.8,45.0,29.89,WSW,257,16.1,16.1,37,0.00,CLR,,0.00,WeatherDisplay:10.37,2013-04-05 00:46:00,
2013-04-04 17:51:00,72.6,45.5,29.89,West,259,18.4,18.4,38,0.00,CLR,,0.00,WeatherDisplay:10.37,2013-04-05 00:51:00,
2013-04-04 17:56:00,72.7,44.9,29.90,West,261,18.4,18.4,37,0.00,CLR,,0.00,WeatherDisplay:10.37,2013-04-05 00:56:00,
2013-04-04 18:02:00,72.3,45.3,29.90,WSW,241,12.7,13.3,38,0.00,CLR,,0.00,WeatherDisplay:10.37,2013-04-05 01:02:00,
2013-04-04 18:07:00,71.9,44.9,29.90,WNW,294,15.0,15.0,38,0.00,CLR,,0.00,WeatherDisplay:10.37,2013-04-05 01:07:00,
2013-04-04 18:12:00,71.3,44.4,29.90,West,267,19.6,19.6,38,0.00,CLR,,0.00,WeatherDisplay:10.37,2013-04-05 01:12:00,
2013-04-04 18:17:00,71.3,44.4,29.90,WNW,295,18.4,18.4,38,0.00,CLR,,0.00,WeatherDisplay:10.37,2013-04-05 01:17:00,
2013-04-04 18:22:00,71.0,43.4,29.90,WSW,257,19.6,19.6,37,0.00,CLR,,0.00,WeatherDisplay:10.37,2013-04-05 01:22:00,
2013-04-04 18:27:00,70.8,43.9,29.90,WSW,257,12.7,12.7,38,0.00,CLR,,0.00,WeatherDisplay:10.37,2013-04-05 01:27:00,
2013-04-04 18:32:00,70.4,43.6,29.91,West,267,17.3,17.3,38,0.00,CLR,,0.00,WeatherDisplay:10.37,2013-04-05 01:32:00,
2013-04-04 18:37:00,70.2,43.4,29.91,WSW,241,12.7,12.7,38,0.00,CLR,,0.00,WeatherDisplay:10.37,2013-04-05 01:37:00,
2013-04-04 18:42:00,69.9,43.1,29.91,West,267,10.4,10.4,38,0.00,CLR,,0.00,WeatherDisplay:10.37,2013-04-05 01:42:00,
2013-04-04 18:47:00,69.9,43.1,29.91,NW,324,6.0,6.0,38,0.00,CLR,,0.00,WeatherDisplay:10.37,2013-04-05 01:47:00,
2013-04-04 18:53:00,69.4,43.4,29.91,NW,311,10.4,10.4,39,0.00,CLR,,0.00,WeatherDisplay:10.37,2013-04-05 01:53:00,
2013-04-04 18:58:00,68.9,42.9,29.91,North,355,12.7,12.7,39,0.00,CLR,,0.00,WeatherDisplay:10.37,2013-04-05 01:58:00,
2013-04-04 19:03:00,68.5,43.2,29.90,NNW,344,13.8,13.8,40,0.00,CLR,,0.00,WeatherDisplay:10.37,2013-04-05 02:03:00,
2013-04-04 19:08:00,68.3,43.0,29.91,NNW,329,11.5,11.5,40,0.00,CLR,,0.00,WeatherDisplay:10.37,2013-04-05 02:08:00,
2013-04-04 19:13:00,68.2,42.9,29.91,NNW,328,10.4,10.4,40,0.00,CLR,,0.00,WeatherDisplay:10.37,2013-04-05 02:13:00,
2013-04-04 19:18:00,68.0,42.8,29.91,NW,325,10.4,10.4,40,0.00,CLR,,0.00,WeatherDisplay:10.37,2013-04-05 02:18:00,
2013-04-04 19:23:00,67.7,42.5,29.91,NW,312,10.4,10.4,40,0.00,CLR,,0.00,WeatherDisplay:10.37,2013-04-05 02:23:00,
2013-04-04 19:28:00,67.5,42.3,29.92,West,264,9.2,9.2,40,0.00,CLR,,0.00,WeatherDisplay:10.37,2013-04-05 02:28:00,
2013-04-04 19:33:00,67.3,42.8,29.92,WSW,255,6.9,6.9,41,0.00,CLR,,0.00,WeatherDisplay:10.37,2013-04-05 02:33:00,
2013-04-04 19:38:00,66.8,43.6,29.92,West,267,11.5,11.5,43,0.00,CLR,,0.00,WeatherDisplay:10.37,2013-04-05 02:38:00,
2013-04-04 19:43:00,66.3,43.7,29.92,WSW,254,10.4,10.4,44,0.00,CLR,,0.00,WeatherDisplay:10.37,2013-04-05 02:43:00,
2013-04-04 19:48:00,66.2,43.6,29.92,West,259,11.5,11.5,44,0.00,CLR,,0.00,WeatherDisplay:10.37,2013-04-05 02:48:00,
2013-04-04 19:53:00,65.9,43.4,29.92,WSW,250,11.5,11.5,44,0.00,CLR,,0.00,WeatherDisplay:10.37,2013-04-05 02:53:00,
2013-04-04 19:58:00,65.3,44.0,29.92,WSW,252,12.7,12.7,46,0.00,CLR,,0.00,WeatherDisplay:10.37,2013-04-05 02:58:00,
2013-04-04 20:03:00,64.9,43.6,29.91,West,279,13.0,13.0,46,0.00,CLR,,0.00,WeatherDisplay:10.37,2013-04-05 03:03:00,
2013-04-04 20:08:00,64.7,44.0,29.91,WSW,253,12.7,12.7,47,0.00,CLR,,0.00,WeatherDisplay:10.37,2013-04-05 03:08:00,
2013-04-04 20:13:00,64.4,44.3,29.91,West,271,12.7,12.7,48,0.00,CLR,,0.00,WeatherDisplay:10.37,2013-04-05 03:13:00,
2013-04-04 20:18:00,64.3,44.7,29.92,WNW,283,11.5,11.5,49,0.00,CLR,,0.00,WeatherDisplay:10.37,2013-04-05 03:18:00,
2013-04-04 20:23:00,64.1,44.5,29.92,West,279,11.5,11.5,49,0.00,CLR,,0.00,WeatherDisplay:10.37,2013-04-05 03:23:00,
2013-04-04 20:29:00,63.7,44.7,29.92,West,267,11.5,11.5,50,0.00,CLR,,0.00,WeatherDisplay:10.37,2013-04-05 03:29:00,
2013-04-04 20:34:00,63.4,44.9,29.92,West,263,10.4,10.4,51,0.00,CLR,,0.00,WeatherDisplay:10.37,2013-04-05 03:34:00,
2013-04-04 20:39:00,63.1,45.2,29.92,West,262,7.0,7.0,52,0.00,CLR,,0.00,WeatherDisplay:10.37,2013-04-05 03:39:00,
2013-04-04 20:44:00,63.0,45.1,29.92,WSW,257,11.5,11.5,52,0.00,CLR,,0.00,WeatherDisplay:10.37,2013-04-05 03:44:00,
2013-04-04 20:50:00,63.0,45.1,29.93,WSW,251,12.7,12.7,52,0.00,CLR,,0.00,WeatherDisplay:10.37,2013-04-05 03:50:00,
2013-04-04 20:55:00,62.9,45.0,29.93,SW,230,10.4,10.4,52,0.00,CLR,,0.00,WeatherDisplay:10.37,2013-04-05 03:55:00,
2013-04-04 21:00:00,62.4,44.5,29.93,SSW,206,6.9,6.9,52,0.00,CLR,,0.00,WeatherDisplay:10.37,2013-04-05 04:00:00,
2013-04-04 21:05:00,62.0,44.7,29.92,SSW,207,6.9,6.9,53,0.00,CLR,,0.00,WeatherDisplay:10.37,2013-04-05 04:05:00,
2013-04-04 21:10:00,61.5,44.7,29.92,WSW,248,4.6,5.1,54,0.00,CLR,,0.00,WeatherDisplay:10.37,2013-04-05 04:10:00,
2013-04-04 21:15:00,61.4,45.1,29.93,SW,233,4.6,4.6,55,0.00,CLR,,0.00,WeatherDisplay:10.37,2013-04-05 04:15:00,
2013-04-04 21:20:00,61.3,45.5,29.93,WSW,249,10.4,10.4,56,0.00,CLR,,0.00,WeatherDisplay:10.37,2013-04-05 04:20:00,
2013-04-04 21:25:00,61.2,46.3,29.93,WSW,250,9.2,9.2,58,0.00,CLR,,0.00,WeatherDisplay:10.37,2013-04-05 04:25:00,
2013-04-04 21:30:00,61.1,46.7,29.93,West,259,13.8,13.8,59,0.00,CLR,,0.00,WeatherDisplay:10.37,2013-04-05 04:30:00,
2013-04-04 21:35:00,60.8,46.4,29.93,West,273,11.5,11.5,59,0.00,CLR,,0.00,WeatherDisplay:10.37,2013-04-05 04:35:00,
2013-04-04 21:40:00,60.5,46.5,29.93,WSW,257,11.5,11.5,60,0.00,CLR,,0.00,WeatherDisplay:10.37,2013-04-05 04:40:00,
2013-04-04 21:46:00,60.6,46.6,29.93,West,272,14.0,14.0,60,0.00,CLR,,0.00,WeatherDisplay:10.37,2013-04-05 04:46:00,
2013-04-04 21:51:00,60.7,46.7,29.94,West,265,11.5,11.5,60,0.00,CLR,,0.00,WeatherDisplay:10.37,2013-04-05 04:51:00,
2013-04-04 21:57:00,60.6,46.6,29.94,West,267,11.5,11.5,60,0.00,CLR,,0.00,WeatherDisplay:10.37,2013-04-05 04:57:00,
2013-04-04 22:02:00,60.4,46.4,29.93,WSW,249,12.7,12.7,60,0.00,CLR,,0.00,WeatherDisplay:10.37,2013-04-05 05:02:00,
2013-04-04 22:07:00,60.2,46.7,29.94,West,265,11.5,11.5,61,0.00,CLR,,0.00,WeatherDisplay:10.37,2013-04-05 05:07:00,
2013-04-04 22:12:00,60.2,46.7,29.94,West,272,15.0,15.0,61,0.00,CLR,,0.00,WeatherDisplay:10.37,2013-04-05 05:12:00,
2013-04-04 22:17:00,60.6,47.5,29.94,West,280,12.0,12.0,62,0.00,CLR,,0.00,WeatherDisplay:10.37,2013-04-05 05:17:00,
2013-04-04 22:22:00,60.4,47.3,29.94,WSW,250,13.0,13.0,62,0.00,CLR,,0.00,WeatherDisplay:10.37,2013-04-05 05:22:00,
2013-04-04 22:27:00,60.3,47.2,29.93,West,267,12.7,12.7,62,0.00,CLR,,0.00,WeatherDisplay:10.37,2013-04-05 05:27:00,
2013-04-04 22:32:00,60.2,47.1,29.93,West,261,13.8,13.8,62,0.00,CLR,,0.00,WeatherDisplay:10.37,2013-04-05 05:32:00,
2013-04-04 22:37:00,60.0,47.4,29.94,West,267,11.5,11.5,63,0.00,CLR,,0.00,WeatherDisplay:10.37,2013-04-05 05:37:00,
2013-04-04 22:42:00,59.9,47.3,29.94,West,275,12.0,12.0,63,0.00,CLR,,0.00,WeatherDisplay:10.37,2013-04-05 05:42:00,
2013-04-04 22:47:00,60.0,47.4,29.93,WNW,291,11.5,11.5,63,0.00,CLR,,0.00,WeatherDisplay:10.37,2013-04-05 05:47:00,
2013-04-04 22:52:00,59.8,47.2,29.93,West,275,11.5,11.5,63,0.00,CLR,,0.00,WeatherDisplay:10.37,2013-04-05 05:52:00,
2013-04-04 22:57:00,59.6,47.0,29.93,West,261,13.0,13.0,63,0.00,CLR,,0.00,WeatherDisplay:10.37,2013-04-05 05:57:00,
2013-04-04 23:02:00,60.0,46.9,29.94,West,271,13.0,13.0,62,0.00,CLR,,0.00,WeatherDisplay:10.37,2013-04-05 06:02:00,
2013-04-04 23:07:00,59.6,46.6,29.94,West,264,11.5,11.5,62,0.00,CLR,,0.00,WeatherDisplay:10.37,2013-04-05 06:07:00,
2013-04-04 23:12:00,59.1,46.5,29.94,WNW,290,12.7,12.7,63,0.00,CLR,,0.00,WeatherDisplay:10.37,2013-04-05 06:12:00,
2013-04-04 23:17:00,59.5,46.5,29.94,West,260,12.7,12.7,62,0.00,CLR,,0.00,WeatherDisplay:10.37,2013-04-05 06:17:00,
2013-04-04 23:22:00,59.4,46.4,29.94,West,266,16.1,16.1,62,0.00,CLR,,0.00,WeatherDisplay:10.37,2013-04-05 06:22:00,
2013-04-04 23:27:00,59.0,46.0,29.95,West,265,10.4,10.4,62,0.00,CLR,,0.00,WeatherDisplay:10.37,2013-04-05 06:27:00,
2013-04-04 23:32:00,59.0,46.4,29.94,WNW,286,13.0,13.0,63,0.00,CLR,,0.00,WeatherDisplay:10.37,2013-04-05 06:32:00,
2013-04-04 23:37:00,58.7,46.1,29.94,West,267,9.2,9.2,63,0.00,CLR,,0.00,WeatherDisplay:10.37,2013-04-05 06:37:00,
2013-04-04 23:42:00,58.5,46.4,29.94,WSW,254,6.9,6.9,64,0.00,CLR,,0.00,WeatherDisplay:10.37,2013-04-05 06:42:00,
2013-04-04 23:47:00,58.1,46.0,29.94,WSW,247,6.0,6.0,64,0.00,CLR,,0.00,WeatherDisplay:10.37,2013-04-05 06:47:00,
2013-04-04 23:52:00,57.8,46.1,29.94,SW,235,4.6,4.6,65,0.00,CLR,,0.00,WeatherDisplay:10.37,2013-04-05 06:52:00,
2013-04-04 23:57:00,57.5,46.2,29.94,SW,223,4.6,4.6,66,0.00,CLR,,0.00,WeatherDisplay:10.37,2013-04-05 06:57:00,